Other Public Products
Issued by NWS Grand Forks, ND

Home | Current Version | Previous Version | Graphics & Text | Print | Product List | Glossary On
Versions: 1 2 3 4 5 6 7 8 9 10 11 12 13 14 15 16 17 18 19 20 21 22 23 24 25 26 27 28 29 30 31 32 33 34 35 36 37 38 39 40 41 42 43 44 45 46 47 48 49 50
203
FPUS83 KFGF 172210
OPUFGF
PRAIRIE TO PINES WEATHER ROUNDUP
NATIONAL WEATHER SERVICE EASTERN NORTH DAKOTA/GRAND FORKS ND
400 PM CST SAT FEB 17 2018

 **SATELLITE DATA USED TO AUGMENT SKY COVER AT AUTOMATED STATIONS**
 *****  WEATHER ACROSS EASTERN NORTH DAKOTA  *****

CITY           SKY/WX    TMP DP  RH WIND       PRES   REMARKS
GRAND FORKS    FAIR      23  11  60 W18G25    29.95R WCI   9
GRND FORKS AFB PTSUNNY   22   9  56 NW14      29.94S WCI  10
GRND FORKS NWS NOT AVBL
BUXTON         NOT AVBL
DEVILS LAKE    FLURRIES  19  14  81 W16       29.90S WCI   4
FARGO          FAIR      23   9  55 NW20      29.98S WCI   8
WAHPETON ARPT  FAIR      28   3  34 NW17G24   29.99R WCI  16
$$

 *****  WEATHER ACROSS CENTRAL AND WESTERN NORTH DAKOTA  *****

CITY           SKY/WX    TMP DP  RH WIND       PRES   REMARKS
JAMESTOWN      FAIR      24  10  55 W18       29.94S WCI  10
BISMARCK       FAIR      24  11  57 W14       29.98F WCI  12
MINOT          FAIR      19   5  54 W18       29.92S WCI   4
MINOT AFB      FAIR      17   6  61 NW20      29.91S WCI   0
GARRISON         N/A     19   5  54 W15       29.93F WCI   5
WILLISTON      FAIR      16   5  62 W10       29.95F WCI   4
DICKINSON      FAIR      19   7  59 W9        29.90F WCI   8
HETTINGER      FAIR      17   8  67 SW9       29.96S WCI   6
$$

 *****  OTHER OBSERVATIONS NORTHEAST NORTH DAKOTA  *****

CITY           SKY/WX    TMP DP  RH WIND       PRES   REMARKS
WALHALLA       FAIR      18   3  53 NW18G28   29.91R WCI   2
LANGDON        CLOUDY    16   7  67 NW22G30   29.86S WCI  -2
CAVALIER         N/A     19   7  58 NW20G26   29.91R WCI   4
GRAFTON        CLOUDY    23  10  58 W20       29.94S WCI   8
CANDO          FLURRIES  18  12  79 NW15      29.90F WCI   3
FORT TOTTEN      N/A     21   8  57 W10       29.95  WCI  10
ROLLA          MOCLDY    14   7  73 N13       29.86S WCI   0
RUGBY          FAIR      16   7  67 NW20G26   29.89F WCI  -1
 ***** THE ABOVE OBSERVATIONS ARE NON NWS ARE NOT QUALITY
        CONTROLLED AND MAY MIS-REPORT RAIN FOR SNOW...
$$

 *****  OTHER OBSERVATIONS SOUTHEAST NORTH DAKOTA *****

CITY           SKY/WX    TMP DP  RH WIND       PRES   REMARKS
COOPERSTOWN    FAIR      21  10  63 W17G25    29.94S WCI   7
VALLEY CITY    CLOUDY    21  10  63 NW10G17   29.97S WCI  10
OAKES            N/A     27   7  43 W12G22    29.99R WCI  16
GWINNER          N/A     27   7  43 W17       29.99R WCI  14
BUFFALO        NOT AVBL
WYNDMERE       NOT AVBL
 ***** THE ABOVE OBSERVATIONS ARE NON NWS ARE NOT QUALITY
       CONTROLLED AND MAY MIS-REPORT RAIN FOR SNOW...
$$

  *****  WEATHER ACROSS NORTHERN MINNESOTA  *****

CITY           SKY/WX    TMP DP  RH WIND       PRES   REMARKS
FLAG ISLAND    FAIR      16   0  48 W25       29.81R WCI  -3
WARROAD        FAIR      18   3  53 W17G26    29.85R WCI   2
ROSEAU         NOT AVBL
HALLOCK        PTSUNNY   21   9  58 NW18G28   29.90R WCI   6
THF RVR FALLS  FAIR      19   7  59 W12       29.92S WCI   7
HALSTAD        NOT AVBL
FOSSTON        FAIR      21   5  49 W16       29.92R WCI   7
BAUDETTE       FAIR      18   3  52 W17G25    29.82R WCI   3
WASKISH        FAIR      18   7  62 W15       29.86R WCI   3
CROOKSTON      FAIR      21   9  58 NW16      29.95S WCI   7
$$
  *****  WEATHER ACROSS CENTRAL AND WEST MINNESOTA  *****

CITY           SKY/WX    TMP DP  RH WIND       PRES   REMARKS
BEMIDJI        PTSUNNY   19   6  57 W17G24    29.88R WCI   4
PARK RAPIDS    FAIR      22   8  55 W20       29.88R WCI   7
WADENA         FAIR      21   7  53 W15G21    29.92R WCI   8
DETROIT LAKES  FAIR      21   9  58 NW18G25   29.94S WCI   6
MOORHEAD       FAIR      23   7  50 W20       29.99R WCI   8
FERGUS FALLS   FAIR      25   9  50 NW21      29.97R WCI  10
ELBOW LAKE     FAIR      25   4  41 W20G30    29.97R WCI  10
MORRIS MN      FAIR      30   7  37 NW20      29.97R WCI  18
STAPLES        FAIR      21   9  58 W15       29.92R WCI   8
WHEATON        FAIR      28   1  31 NW20G25   30.01R WCI  15
$$
  *****  WEATHER ELSEWHERE ACROSS MINNESOTA  *****

CITY           SKY/WX    TMP DP  RH WIND       PRES   REMARKS
DULUTH         FAIR      27  11  51 W22G29    29.79R WCI  13
INTRNTL FALLS  FAIR      20   3  48 W16G23    29.79R WCI   6
ELY            PTSUNNY   21  10  63 W20G25    29.75R WCI   6
CLOQUET        PTSUNNY   28   9  43 W18G24    29.81R WCI  16
BRAINERD       FAIR      27  11  51 W14G23    29.89R WCI  16
HIBBING        PTSUNNY   22   8  55 W12G17    29.81R WCI  10
ALEXANDRIA     FAIR      26   6  42 NW20G26   29.94R WCI  12
SAINT CLOUD    FAIR      31  12  45 NW26G33   29.91R WCI  17
MINNEAPOLIS    PTSUNNY   37  18  46 W20G30    29.91R
$$

  *****  WEATHER ACROSS SOUTH DAKOTA  *****

CITY           SKY/WX    TMP DP  RH WIND       PRES   REMARKS
SIOUX FALLS    FAIR      32  23  69 W14       30.04R WCI  22
BROOKINGS      PTSUNNY   32  20  61 NW20      29.99R WCI  20
WATERTOWN      FAIR      31  14  49 NW15      29.97R WCI  20
HURON          FAIR      32  22  66 W14       30.04S WCI  22
SISSETON         N/A     31   5  33 NW21G26   29.98R WCI  18
ABERDEEN       FAIR      32  13  45 W13       30.02S WCI  22
MITCHELL       PTSUNNY   30  23  75 NW12      30.06F WCI  20
PIERRE         PTSUNNY   27  19  72 NW9       30.03F WCI  18
MOBRIDGE       FAIR      26  13  57 NW10      29.99S WCI  16
RAPID CITY     PTSUNNY   29  21  72 NE9       29.91F WCI  20
$$

  *****  SOME WEATHER IN NEARBY STATES *****

CITY           SKY/WX    TMP DP  RH WIND       PRES   REMARKS
GLASGOW MT     CLOUDY    15   5  64 NE5       29.89F WCI   8
GREAT FALLS MT CLOUDY    19  15  84 E13       29.60F WCI   6
CHEYENNE WY    FAIR      48   0  13 W35G44    29.90F
SCOTTSBLUFF NE FAIR      51  16  24 W22G33    29.89F
OMAHA NE       FAIR      46  25  43 NW20G25   30.09R
DES MOINES IA  FAIR      41  30  65 NW14      30.04R
DAVENPORT IA   CLOUDY    32  24  72 W20       30.01R WCI  20
CHICAGO IL     SNOW      32  31  96 S3        29.92S VSB 1/4
EAU CLAIRE WI  FAIR      29  22  75 SW15      29.88R WCI  18
LA CROSSE WI   CLOUDY    31  23  72 W15       29.94R WCI  20
$$

  *****  SOME NATIONAL WEATHER *****

CITY           SKY/WX    TMP DP  RH WIND       PRES   REMARKS
LA GUARDIA NY  LGT SNOW  37  24  59 SE7       30.26S
RALEIGH NC     CLOUDY    43  42  97 NE3       30.14S FOG
ATLANTA GA     PTSUNNY   75  53  46 W20G26    30.07S
NEW ORLEANS LA PTSUNNY   82  64  54 W13G21    30.10S
OKLAHOMA CITY  PTSUNNY   57  26  30 NE13      30.14R
ALBUQUERQUE NM PTSUNNY   56  18  22 W8        30.16F
SALT LAKE CITY FAIR      57  16  20 S18G31    29.99F
LOS ANGELES CA FAIR      69  41  36 W12       30.08F
BOISE ID       CLOUDY    47  30  51 SE14      29.85F
SEATTLE WA     FAIR      48  37  65 SW25G35   29.60R
$$

*** WEATHER ACROSS MANITOBA...SASKATCHEWAN AND ONTARIO ***
                ***ONTARIO***

CITY           SKY/WX    TMP DP  RH WIND       PRES   REMARKS
GERALDTON      FLURRIES  19   7  58 W15G24    29.58R WCI   5
THUNDER BAY    MOSUNNY   28   5  37 W16G23    29.68R WCI  17
SIOUX LOOKOUT  CRYSTALS  14  -2  48 W14G26    29.66R WCI  -1
TORONTO        MOCLDY    28  18  64 S14       29.99F WCI  17
BIG TROUT LK   LGT SNOW   0  -8  71 W14G20    29.56R WCI -19
PICKLE LAKE    MOSUNNY    9  -2  61 W22G33    29.56R WCI -11
DRYDEN         MOSUNNY   16   0  48 W22G33    29.68R WCI  -2
KENORA         MOSUNNY   14  -2  48 W18G25    29.74R WCI  -3
$$
                *** MANITOBA***

CITY           SKY/WX    TMP DP  RH WIND       PRES   REMARKS
BRANDON        PTSUNNY   10   0  61 W18       29.88S WCI  -8
DAUPHIN        CLOUDY    10   1  67 W22G30    29.85R WCI  -9
ISLAND LAKE    PTSUNNY   -2 -13  60 W18       29.69R WCI -24
PILOT MOUND      N/A     10   0  61 NW13        N/A  WCI  -5
THE PAS        PTSUNNY    3  -9  55 NW15G21   29.78R WCI -15
THOMPSON       FLURRIES  -6 -22  45 NW17G26   29.71R WCI -28
WINNIPEG       MOSUNNY   10  -2  56 NW13      29.90R WCI  -5
LYNN LAKE      CLOUDY   -13 -26  53 NW16G23   29.74R WCI -37
CHURCHILL      BLWGSNOW -31 -38  68 NW22G28   29.74R VSB 1/2 WCI -64
GILLAM         MOCLDY   -13 -26  53 NW17      29.68R WCI -38
$$
                ***SASKATCHEWAN***

CITY           SKY/WX    TMP DP  RH WIND       PRES   REMARKS
ESTEVAN        PTSUNNY   12   1  62 NW14G20   29.90F WCI  -3
KINDERSLEY     PTSUNNY   10   0  61 NW8       29.84F WCI  -1
LLOYDMINSTER   CLOUDY     9  -2  61 NW15      29.82F WCI  -8
PRINCE ALBERT  FLURRIES  12  -2  52 NW13G21   29.84F WCI  -3
REGINA         PTSUNNY   12   3  67 W15       29.87F WCI  -4
YORKTON        SUNNY      9  -2  61 W18       29.84R WCI -10
N. BATTLEFORD  CLOUDY    10  -2  56 NW14      29.86F WC



USA.gov is the U.S. government's official web portal to all federal, state and local government web resources and services.